User: anonymous   Login
Location: Unspecified
(0.0000°N, 0.0000°E)
Time: 23:32:42
(UTC+00:00)
Language:

DOVE 4 - Orbit

View from above orbital plane
View from above orbital plane
View from above satellite
View from above satellite

Ground track
Ground track

The orbit data is extracted from the following two-line orbital elements,

1 39430U 13066Q   23332.75950543  .00003425  00000-0  58719-3 0  9993
2 39430  97.7566 214.1951 0143198 171.6843 188.6783 14.62801434533588
Epoch (UTC): 28 November 2023 18:13:41
Eccentricity: 0.0143198
inclination: 97.7566°
perigee height: 583 km
apogee height: 785 km
right ascension of ascending node: 214.1951°
argument of perigee: 171.6843°
revolutions per day: 14.62801434
mean anomaly at epoch: 188.6783°
orbit number at epoch: 53358

The dashed part of the orbit path shows where the satellite is in the earth's shadow,  

DLR